| time (UTC) | temp C | wind direction | speed KPH | gust KPH | rain 1hr cm | rain 24hr cm | rain mn cm | humidity % | barometer mb |
| 20260504110516 | 7 | 305 | 14.5 | 20.9 | 0.00 | 0.00 | 0.00 | 59 | 1015.5 |
| 20260504100516 | 7 | 314 | 16.1 | 24.1 | 0.00 | 0.00 | 0.00 | 59 | 1015.7 |
| 20260504100122 | 7 | 343 | 17.7 | 22.5 | 0.00 | 0.00 | 0.00 | 59 | 1015.8 |
| 20260504081558 | 8 | 5 | 22.5 | 30.6 | 0.00 | 0.00 | 0.00 | 56 | 1015.1 |
| 20260504081022 | 8 | 18 | 24.1 | 30.6 | 0.00 | 0.00 | 0.00 | 55 | 1015.0 |
| 20260504080516 | 8 | 42 | 19.3 | 27.4 | 0.00 | 0.00 | 0.00 | 55 | 1015.2 |
| 20260504080329 | 8 | 40 | 19.3 | 29.0 | 0.00 | 0.00 | 0.00 | 54 | 1015.1 |
| 20260504060110 | 12 | 24 | 32.2 | 48.3 | 0.00 | 0.00 | 0.00 | 37 | 1012.5 |
| 20260504050524 | 12 | 27 | 22.5 | 41.8 | 0.00 | 0.00 | 0.00 | 34 | 1011.3 |
| 20260504050118 | 12 | 44 | 24.1 | 41.8 | 0.00 | 0.00 | 0.00 | 34 | 1011.1 |
| 20260504045523 | 12 | 43 | 24.1 | 32.2 | 0.00 | 0.00 | 0.00 | 34 | 1011.2 |
| 20260504045020 | 13 | 57 | 22.5 | 32.2 | 0.00 | 0.00 | 0.00 | 35 | 1011.1 |
| 20260504044615 | 13 | 51 | 22.5 | 32.2 | 0.00 | 0.00 | 0.00 | 35 | 1011.0 |
| 20260504044022 | 13 | 37 | 20.9 | 35.4 | 0.00 | 0.00 | 0.00 | 35 | 1010.9 |
| 20260504043525 | 13 | 41 | 24.1 | 41.8 | 0.00 | 0.00 | 0.00 | 35 | 1010.4 |
| 20260504043119 | 13 | 28 | 30.6 | 46.7 | 0.00 | 0.00 | 0.00 | 34 | 1010.2 |
| 20260504042522 | 14 | 27 | 32.2 | 38.6 | 0.00 | 0.00 | 0.00 | 35 | 1010.0 |
| 20260504042022 | 14 | 26 | 24.1 | 35.4 | 0.00 | 0.00 | 0.00 | 36 | 1009.8 |
| 20260504041617 | 13 | 33 | 25.7 | 32.2 | 0.00 | 0.00 | 0.00 | 37 | 1009.7 |
| 20260504041023 | 13 | 34 | 12.9 | 20.9 | 0.00 | 0.00 | 0.00 | 38 | 1009.4 |
| 20260504040519 | 13 | 18 | 8.0 | 12.9 | 0.00 | 0.00 | 0.00 | 38 | 1009.4 |
| 20260504040041 | 13 | 22 | 6.4 | 12.9 | 0.00 | 0.00 | 0.00 | 37 | 1009.0 |
| 20260504035517 | 13 | 17 | 8.0 | 12.9 | 0.00 | 0.00 | 0.00 | 37 | 1009.0 |
| 20260504035016 | 14 | 27 | 8.0 | 16.1 | 0.00 | 0.00 | 0.00 | 36 | 1008.8 |
| 20260504034610 | 14 | 24 | 11.3 | 16.1 | 0.00 | 0.00 | 0.00 | 36 | 1008.8 |
| 20260504034029 | 14 | 22 | 11.3 | 16.1 | 0.00 | 0.00 | 0.00 | 35 | 1008.7 |
| 20260504033516 | 15 | 31 | 11.3 | 16.1 | 0.00 | 0.00 | 0.00 | 35 | 1008.7 |
| 20260504033049 | 15 | 32 | 11.3 | 17.7 | 0.00 | 0.00 | 0.00 | 34 | 1008.5 |
| 20260504032520 | 15 | 26 | 12.9 | 19.3 | 0.00 | 0.00 | 0.00 | 34 | 1008.4 |
| 20260504032020 | 15 | 29 | 11.3 | 19.3 | 0.00 | 0.00 | 0.00 | 34 | 1008.2 |
| 20260504031542 | 15 | 32 | 14.5 | 19.3 | 0.00 | 0.00 | 0.00 | 33 | 1008.4 |
| 20260504031015 | 15 | 39 | 14.5 | 20.9 | 0.00 | 0.00 | 0.00 | 33 | 1008.3 |
| 20260504030513 | 16 | 25 | 14.5 | 22.5 | 0.00 | 0.00 | 0.00 | 33 | 1008.4 |
| 20260504030048 | 16 | 30 | 16.1 | 22.5 | 0.00 | 0.00 | 0.00 | 32 | 1008.2 |
| 20260504025518 | 16 | 36 | 14.5 | 30.6 | 0.00 | 0.00 | 0.00 | 31 | 1008.0 |
| 20260504025013 | 17 | 26 | 17.7 | 30.6 | 0.00 | 0.00 | 0.00 | 30 | 1008.0 |
| 20260504024547 | 17 | 22 | 17.7 | 24.1 | 0.00 | 0.00 | 0.00 | 29 | 1008.2 |
| 20260504024021 | 17 | 21 | 19.3 | 25.7 | 0.00 | 0.00 | 0.00 | 28 | 1007.9 |
| 20260504023518 | 17 | 21 | 19.3 | 25.7 | 0.00 | 0.00 | 0.00 | 27 | 1007.6 |
| 20260504023059 | 17 | 19 | 17.7 | 22.5 | 0.00 | 0.00 | 0.00 | 27 | 1007.8 |
| 20260504022515 | 18 | 24 | 17.7 | 25.7 | 0.00 | 0.00 | 0.00 | 26 | 1007.8 |
| 20260504022015 | 18 | 30 | 19.3 | 29.0 | 0.00 | 0.00 | 0.00 | 26 | 1008.0 |
| 20260504021551 | 18 | 5 | 19.3 | 35.4 | 0.00 | 0.00 | 0.00 | 25 | 1007.7 |
| 20260504021018 | 19 | 15 | 25.7 | 35.4 | 0.00 | 0.00 | 0.00 | 24 | 1007.6 |
| 20260504020515 | 20 | 12 | 14.5 | 25.7 | 0.00 | 0.00 | 0.00 | 23 | 1007.7 |
| 20260504020048 | 20 | 17 | 16.1 | 27.4 | 0.00 | 0.00 | 0.00 | 23 | 1007.6 |
| 20260504015518 | 20 | 5 | 17.7 | 22.5 | 0.00 | 0.00 | 0.00 | 23 | 1007.7 |
| 20260504015017 | 21 | 11 | 14.5 | 22.5 | 0.00 | 0.00 | 0.00 | 22 | 1007.7 |
| 20260504014820 | 21 | 352 | 14.5 | 24.1 | 0.00 | 0.00 | 0.00 | 21 | 1007.8 |
| 20260504014016 | 22 | 348 | 16.1 | 27.4 | 0.00 | 0.00 | 0.00 | 21 | 1007.7 |
| 20260504013517 | 22 | 5 | 19.3 | 27.4 | 0.00 | 0.00 | 0.00 | 21 | 1007.5 |
| 20260504013049 | 22 | 355 | 19.3 | 30.6 | 0.00 | 0.00 | 0.00 | 20 | 1007.7 |
| 20260504012514 | 22 | 349 | 19.3 | 33.8 | 0.00 | 0.00 | 0.00 | 20 | 1007.8 |
| 20260504012017 | 22 | 323 | 20.9 | 33.8 | 0.00 | 0.00 | 0.00 | 20 | 1007.9 |
| 20260504011546 | 22 | 333 | 24.1 | 30.6 | 0.00 | 0.00 | 0.00 | 19 | 1007.8 |
| 20260504011014 | 22 | 334 | 19.3 | 35.4 | 0.00 | 0.00 | 0.00 | 19 | 1007.9 |
| 20260504010824 | 22 | 327 | 25.7 | 35.4 | 0.00 | 0.00 | 0.00 | 18 | 1007.9 |
| 20260504010819 | 22 | 340 | 24.1 | 35.4 | 0.00 | 0.00 | 0.00 | 18 | 1007.7 |
| 20260504005515 | 22 | 331 | 27.4 | 35.4 | 0.00 | 0.00 | 0.00 | 18 | 1007.7 |
| 20260504005018 | 22 | 332 | 20.9 | 32.2 | 0.00 | 0.00 | 0.00 | 18 | 1007.9 |
| 20260504004554 | 22 | 333 | 24.1 | 38.6 | 0.00 | 0.00 | 0.00 | 18 | 1007.9 |
| 20260504004016 | 23 | 342 | 27.4 | 38.6 | 0.00 | 0.00 | 0.00 | 18 | 1007.8 |
| 20260504003515 | 23 | 350 | 29.0 | 37.0 | 0.00 | 0.00 | 0.00 | 18 | 1007.9 |
| 20260504003102 | 23 | 350 | 25.7 | 38.6 | 0.00 | 0.00 | 0.00 | 18 | 1007.9 |
| 20260504002518 | 23 | 352 | 29.0 | 38.6 | 0.00 | 0.00 | 0.00 | 18 | 1007.9 |
| 20260504002019 | 23 | 352 | 22.5 | 38.6 | 0.00 | 0.00 | 0.00 | 18 | 1008.0 |
| 20260504001604 | 23 | 345 | 25.7 | 40.2 | 0.00 | 0.00 | 0.00 | 18 | 1008.0 |
| 20260504001017 | 23 | 344 | 30.6 | 40.2 | 0.00 | 0.00 | 0.00 | 18 | 1007.9 |
| 20260504000517 | 23 | 346 | 20.9 | 41.8 | 0.00 | 0.00 | 0.00 | 18 | 1008.1 |
| 20260504000028 | 23 | 336 | 27.4 | 41.8 | 0.00 | 0.00 | 0.00 | 17 | 1008.0 |
| 20260503235515 | 23 | 306 | 29.0 | 35.4 | 0.00 | 0.00 | 0.00 | 17 | 1008.0 |
| 20260503235027 | 23 | 352 | 24.1 | 33.8 | 0.00 | 0.00 | 0.00 | 17 | 1007.9 |
| 20260503234538 | 23 | 341 | 19.3 | 53.1 | 0.00 | 0.00 | 0.00 | 17 | 1008.1 |
| 20260503234019 | 23 | 352 | 29.0 | 53.1 | 0.00 | 0.00 | 0.00 | 17 | 1008.0 |
| 20260503233515 | 23 | 309 | 25.7 | 38.6 | 0.00 | 0.00 | 0.00 | 17 | 1008.1 |
| 20260503233040 | 23 | 325 | 27.4 | 35.4 | 0.00 | 0.00 | 0.00 | 17 | 1008.2 |
| 20260503232514 | 23 | 15 | 25.7 | 40.2 | 0.00 | 0.00 | 0.00 | 17 | 1008.3 |
| 20260503232015 | 23 | 316 | 27.4 | 40.2 | 0.00 | 0.00 | 0.00 | 17 | 1008.3 |
| 20260503231540 | 23 | 342 | 22.5 | 35.4 | 0.00 | 0.00 | 0.00 | 17 | 1008.3 |
| 20260503231016 | 23 | 322 | 27.4 | 38.6 | 0.00 | 0.00 | 0.00 | 17 | 1008.6 |
| 20260503230514 | 23 | 334 | 30.6 | 38.6 | 0.00 | 0.00 | 0.00 | 16 | 1008.3 |
| 20260503230043 | 23 | 335 | 24.1 | 35.4 | 0.00 | 0.00 | 0.00 | 16 | 1008.2 |
| 20260503225513 | 23 | 337 | 20.9 | 46.7 | 0.00 | 0.00 | 0.00 | 16 | 1008.3 |
| 20260503225014 | 23 | 331 | 16.1 | 35.4 | 0.00 | 0.00 | 0.00 | 16 | 1008.5 |
| 20260503224539 | 23 | 319 | 20.9 | 32.2 | 0.00 | 0.00 | 0.00 | 17 | 1008.7 |
| 20260503224017 | 23 | 346 | 24.1 | 40.2 | 0.00 | 0.00 | 0.00 | 16 | 1008.7 |
| 20260503223514 | 23 | 338 | 27.4 | 40.2 | 0.00 | 0.00 | 0.00 | 16 | 1008.5 |
| 20260503223040 | 23 | 319 | 24.1 | 37.0 | 0.00 | 0.00 | 0.00 | 17 | 1008.7 |
| 20260503222513 | 23 | 348 | 24.1 | 38.6 | 0.00 | 0.00 | 0.00 | 17 | 1008.7 |
| 20260503222016 | 23 | 315 | 29.0 | 38.6 | 0.00 | 0.00 | 0.00 | 16 | 1008.5 |
| 20260503221552 | 23 | 329 | 20.9 | 35.4 | 0.00 | 0.00 | 0.00 | 17 | 1008.8 |
| 20260503221012 | 23 | 309 | 25.7 | 35.4 | 0.00 | 0.00 | 0.00 | 17 | 1008.7 |
| 20260503220519 | 23 | 339 | 20.9 | 30.6 | 0.00 | 0.00 | 0.00 | 17 | 1008.9 |
| 20260503220047 | 23 | 360 | 20.9 | 37.0 | 0.00 | 0.00 | 0.00 | 17 | 1009.0 |
| 20260503215514 | 23 | 304 | 25.7 | 37.0 | 0.00 | 0.00 | 0.00 | 16 | 1009.1 |
| 20260503215013 | 23 | 320 | 24.1 | 33.8 | 0.00 | 0.00 | 0.00 | 17 | 1009.1 |
| 20260503214541 | 23 | 338 | 24.1 | 33.8 | 0.00 | 0.00 | 0.00 | 17 | 1009.2 |
| 20260503214016 | 23 | 329 | 16.1 | 33.8 | 0.00 | 0.00 | 0.00 | 18 | 1009.2 |
| 20260503213514 | 23 | 304 | 20.9 | 32.2 | 0.00 | 0.00 | 0.00 | 18 | 1009.3 |
| 20260503213038 | 23 | 313 | 14.5 | 35.4 | 0.00 | 0.00 | 0.00 | 18 | 1009.3 |
| 20260503212516 | 23 | 325 | 24.1 | 35.4 | 0.00 | 0.00 | 0.00 | 17 | 1009.6 |
| 20260503212011 | 23 | 337 | 22.5 | 35.4 | 0.00 | 0.00 | 0.00 | 17 | 1009.6 |
| 20260503211549 | 23 | 288 | 19.3 | 30.6 | 0.00 | 0.00 | 0.00 | 17 | 1009.8 |
| 20260503211020 | 23 | 346 | 16.1 | 35.4 | 0.00 | 0.00 | 0.00 | 17 | 1009.6 |
| 20260503210515 | 23 | 329 | 27.4 | 35.4 | 0.00 | 0.00 | 0.00 | 17 | 1009.6 |
| 20260503210047 | 23 | 5 | 22.5 | 32.2 | 0.00 | 0.00 | 0.00 | 17 | 1009.8 |
| 20260503205517 | 23 | 320 | 20.9 | 37.0 | 0.00 | 0.00 | 0.00 | 16 | 1010.0 |
| 20260503205016 | 23 | 323 | 25.7 | 37.0 | 0.00 | 0.00 | 0.00 | 16 | 1009.9 |
| 20260503204547 | 23 | 326 | 25.7 | 35.4 | 0.00 | 0.00 | 0.00 | 16 | 1009.8 |
| 20260503204019 | 23 | 342 | 22.5 | 33.8 | 0.00 | 0.00 | 0.00 | 16 | 1009.9 |
| 20260503203516 | 22 | 350 | 24.1 | 35.4 | 0.00 | 0.00 | 0.00 | 15 | 1010.2 |
| 20260503203049 | 22 | 349 | 25.7 | 41.8 | 0.00 | 0.00 | 0.00 | 16 | 1010.2 |
| 20260503202516 | 23 | 340 | 25.7 | 41.8 | 0.00 | 0.00 | 0.00 | 15 | 1010.0 |
| 20260503202017 | 23 | 331 | 22.5 | 40.2 | 0.00 | 0.00 | 0.00 | 16 | 1010.0 |
| 20260503201558 | 22 | 344 | 30.6 | 40.2 | 0.00 | 0.00 | 0.00 | 16 | 1010.0 |
| 20260503201014 | 22 | 343 | 27.4 | 40.2 | 0.00 | 0.00 | 0.00 | 15 | 1010.1 |
| 20260503200517 | 22 | 342 | 25.7 | 46.7 | 0.00 | 0.00 | 0.00 | 16 | 1010.2 |
| 20260503200056 | 23 | 304 | 27.4 | 46.7 | 0.00 | 0.00 | 0.00 | 15 | 1010.5 |
| 20260503195513 | 22 | 360 | 25.7 | 38.6 | 0.00 | 0.00 | 0.00 | 16 | 1010.3 |
| 20260503195027 | 22 | 329 | 29.0 | 43.5 | 0.00 | 0.00 | 0.00 | 15 | 1010.3 |
| 20260503194605 | 22 | 322 | 29.0 | 43.5 | 0.00 | 0.00 | 0.00 | 15 | 1010.4 |
| 20260503194022 | 22 | 331 | 25.7 | 41.8 | 0.00 | 0.00 | 0.00 | 15 | 1010.5 |
| 20260503193530 | 22 | 314 | 25.7 | 41.8 | 0.00 | 0.00 | 0.00 | 14 | 1010.3 |
| 20260503193057 | 23 | 319 | 29.0 | 41.8 | 0.00 | 0.00 | 0.00 | 15 | 1010.4 |
| 20260503192515 | 23 | 340 | 20.9 | 37.0 | 0.00 | 0.00 | 0.00 | 15 | 1010.7 |
| 20260503192014 | 23 | 332 | 24.1 | 40.2 | 0.00 | 0.00 | 0.00 | 16 | 1010.9 |
| 20260503191603 | 23 | 313 | 27.4 | 40.2 | 0.00 | 0.00 | 0.00 | 17 | 1010.9 |
| 20260503191018 | 23 | 355 | 27.4 | 38.6 | 0.00 | 0.00 | 0.00 | 17 | 1011.0 |
| 20260503190518 | 22 | 331 | 20.9 | 35.4 | 0.00 | 0.00 | 0.00 | 17 | 1011.1 |
| 20260503190105 | 22 | 297 | 19.3 | 33.8 | 0.00 | 0.00 | 0.00 | 17 | 1011.0 |
| 20260503185521 | 22 | 296 | 25.7 | 38.6 | 0.00 | 0.00 | 0.00 | 17 | 1011.0 |
| 20260503185018 | 22 | 344 | 24.1 | 38.6 | 0.00 | 0.00 | 0.00 | 17 | 1011.0 |
| 20260503184548 | 22 | 317 | 16.1 | 30.6 | 0.00 | 0.00 | 0.00 | 18 | 1011.3 |
| 20260503184024 | 22 | 346 | 19.3 | 30.6 | 0.00 | 0.00 | 0.00 | 17 | 1011.5 |
| 20260503183521 | 22 | 350 | 9.7 | 29.0 | 0.00 | 0.00 | 0.00 | 19 | 1011.5 |
| 20260503183108 | 22 | 305 | 17.7 | 29.0 | 0.00 | 0.00 | 0.00 | 18 | 1011.5 |
| 20260503182536 | 22 | 311 | 16.1 | 37.0 | 0.00 | 0.00 | 0.00 | 18 | 1011.7 |
| 20260503182021 | 22 | 311 | 24.1 | 37.0 | 0.00 | 0.00 | 0.00 | 18 | 1011.6 |
| 20260503181636 | 22 | 360 | 20.9 | 30.6 | 0.00 | 0.00 | 0.00 | 18 | 1011.7 |
| 20260503181019 | 22 | 342 | 16.1 | 27.4 | 0.00 | 0.00 | 0.00 | 20 | 1011.6 |
| 20260503180517 | 22 | 320 | 17.7 | 32.2 | 0.00 | 0.00 | 0.00 | 20 | 1011.7 |
| 20260503180028 | 22 | 313 | 19.3 | 32.2 | 0.00 | 0.00 | 0.00 | 20 | 1011.8 |
| 20260503175520 | 22 | 352 | 16.1 | 27.4 | 0.00 | 0.00 | 0.00 | 20 | 1012.0 |
| 20260503175028 | 22 | 306 | 20.9 | 25.7 | 0.00 | 0.00 | 0.00 | 20 | 1012.0 |
| 20260503174556 | 21 | 339 | 12.9 | 25.7 | 0.00 | 0.00 | 0.00 | 22 | 1011.9 |
| 20260503174022 | 21 | 317 | 6.4 | 19.3 | 0.00 | 0.00 | 0.00 | 23 | 1012.2 |
| 20260503173519 | 21 | 312 | 9.7 | 19.3 | 0.00 | 0.00 | 0.00 | 23 | 1012.3 |
| 20260503173109 | 20 | 312 | 4.8 | 16.1 | 0.00 | 0.00 | 0.00 | 24 | 1012.4 |
| 20260503172518 | 20 | 318 | 9.7 | 22.5 | 0.00 | 0.00 | 0.00 | 24 | 1012.4 |
| 20260503172020 | 20 | 336 | 14.5 | 22.5 | 0.00 | 0.00 | 0.00 | 24 | 1012.5 |
| 20260503171556 | 20 | 291 | 12.9 | 22.5 | 0.00 | 0.00 | 0.00 | 24 | 1012.5 |
| 20260503171158 | 20 | 290 | 9.7 | 20.9 | 0.00 | 0.00 | 0.00 | 26 | 1012.5 |
| 20260503170521 | 20 | 278 | 14.5 | 20.9 | 0.00 | 0.00 | 0.00 | 26 | 1012.8 |
| 20260503170115 | 20 | 317 | 12.9 | 25.7 | 0.00 | 0.00 | 0.00 | 26 | 1012.7 |
| 20260503160121 | 16 | 227 | 11.3 | 19.3 | 0.00 | 0.00 | 0.00 | 46 | 1013.1 |
| 20260503150518 | 12 | 244 | 17.7 | 30.6 | 0.00 | 0.00 | 0.00 | 57 | 1013.5 |
| 20260503131019 | 6 | 222 | 9.7 | 16.1 | 0.00 | 0.00 | 0.00 | 78 | 1014.2 |
| 20260503130519 | 6 | 192 | 11.3 | 16.1 | 0.00 | 0.00 | 0.00 | 78 | 1014.2 |